www.pogodaiklimat.ru

Погода и климат >> Архив погоды >> Аргентина >> La Plata


ПОГОДА в La Plata

  • Прогноз погоды в La Plata
  • Монитор погоды в La Plata
  • Климат города

АРХИВ ПОГОДЫ в La Plata

Время (UTC), дата Ветер
(напр.,м/с)
 
Видим.   Явления Облачность Т
(С)
Тd
(С)
f
(%)
Тe
(С)
Тes
(С)
Комфортность P
(гПа)
Po
(гПа)
Тmin
(С)
Tmax
(С)
R
(мм)
R24
(мм)
S
(см)
18 20.06 С 3 10 км 3/0
[Ci fib]
+12.7 -2.5 35 +12 +15 1026.1 1023.2
21 20.06 СВ 2 10 км 9/0
[Cs]
+8.2 +2.2 66 +7 +7 1025.2 1022.4
00 21.06 СВ 2 10 км 3/0
[Ci sp]
+5.5 +3.1 85 +4 +4 1024.8 1022.0 0.0 +13.1
03 21.06 СВ 2 10 км 4/0
[Ci fib]
+8.2 +3.1 70 +6 +6 1024.6 1021.8
06 21.06 С 3 10 км 10/0
[Ac As Cs]
+9.5 +3.0 64 +7 +7 1023.8 1021.0
09 21.06 С 3 10 км 1/0
[Ac As]
+8.8 +3.0 67 +7 +7 1022.7 1020.0
12 21.06 СВ 2 10 км 3/0
[Ci sp]
+6.7 +3.4 79 +5 +6 1023.6 1020.8 +5.5 +10.3
15 21.06 С 5 10 км 8/0
[Ac und Cs]
+11.1 +4.8 65 +9 +10 1022.7 1020.0
18 21.06 С 5 10 км 8/0
[Ac As Ci sp]
+12.7 +5.7 62 +11 +12 1019.5 1016.8
21 21.06 В 1 8000 м дымка 8/0
[Cs]
+9.5 +7.2 86 +9 +9 1017.8 1015.0
00 22.06 СВ 3 7000 м дымка ясно +9.9 +7.8 87 +8 +8 1017.2 1014.4 +6.7 +13.4
03 22.06 СВ 3 10 км ясно +11.0 +9.4 90 +9 +9 1016.0 1013.2
06 22.06 С 4 10 км 6/0
[Ac und]
+12.0 +10.5 91 +10 +10 1013.7 1010.9
09 22.06 С 4 10 км 10/1 540 м
[St Ac As]
+13.8 +12.3 91 +12 +12 1012.6 1009.8
12 22.06 С 4 8000 м дымка 10/4 300 м
[St Ac As]
+14.2 +12.8 91 +13 +13 1013.1 1010.2 +9.9 +14.2
15 22.06 С 4 8000 м дымка 10/8 300 м
[St Ac As]
+16.3 +14.4 89 +16 +16 1012.8 1010.0
18 22.06 С 2 10 км 10/0
[Ac As Cs]
+20.4 +15.8 75 +24 +27 комфорт 1009.9 1007.2
21 22.06 СВ 3 10 км 6/0
[Cs]
+17.2 +14.6 85 +17 +17 1009.8 1007.0
00 23.06 СВ 2 10 км 4/0
[Cs]
+15.5 +13.9 90 +16 +16 1011.0 1008.2 +14.2 +21.5
03 23.06 С 2 10 км 6/0
[Ac As Cs]
+18.2 +14.8 81 +19 +19 1011.9 1009.2
06 23.06 С 3 10 км 4/0
[Cs]
+17.2 +13.9 81 +17 +17 1012.6 1009.8
09 23.06 С 3 10 км 6/0
[Cs]
+16.7 +13.5 81 +17 +17 1012.2 1009.4
12 23.06 С 4 10 км 10/5 900 м
[Sc diur, vesp Ac As]
+17.4 +14.1 81 +17 +17 1012.8 1010.1 +15.5 +19.4
15 23.06 С 6 10 км {ливн. осадки} 9/3 900 м
[Cu med, cong Ac trans]
+19.8 +14.9 73 +22 +22 комфорт 1013.1 1010.4
18 23.06 С 7 10 км {ливн. осадки} 8/0
[Ac trans]
+21.5 +15.2 67 +25 +25 комфорт 1011.8 1009.0 0.0
21 23.06 С 4 10 км 4/3 750 м
[Cu hum Ci fib]
+20.6 +15.4 72 +24 +24 комфорт 1012.8 1010.1
00 24.06 С 1 10 км зарница 1/1 1050 м
[Cb calv]
+18.6 +15.2 81 +20 +20 1014.5 1011.8 +17.4 +22.4
03 24.06 Ю 2 10 км 6/5 900 м
[Sc Cs]
+16.0 +15.1 94 +16 +16 1016.0 1013.3
06 24.06 Ю 2 10 км зарница 6/0
[Ac As Ci sp]
+14.0 +12.4 90 +14 +14 1016.5 1013.8
09 24.06 ЮВ 3 10 км 10/10 210 м
[St]
+12.4 +12.2 99 +11 +11 1016.3 1013.6
12 24.06 Ю 2 200 м туман ?/? +13.0 +13.0 100 +12 +12 1018.1 1015.3 +11.6 +18.6 0.0
15 24.06 В 4 10 км {туман} 8/0
[Ac As Cs]
+19.1 +15.8 81 +20 +23 1017.3 1014.6
18 24.06 В 4 10 км {туман} 6/0
[Ac trans Cs]
+21.5 +16.3 72 +25 +27 комфорт 1015.0 1012.2
21 24.06 В 2 10 км 10/0
[Ac As Cs]
+17.5 +15.5 88 +18 +18 1014.9 1012.1
00 25.06 СВ 2 10 км 5/0
[Cs]
+16.5 +15.3 93 +17 +17 1015.6 1012.8 +13.0 +22.1
03 25.06 С 3 10 км 6/0
[Cs]
+17.7 +15.9 89 +18 +18 1016.0 1013.3
06 25.06 С 3 10 км 8/4 750 м
[Cu hum Cs]
+18.4 +15.9 85 +19 +19 1015.9 1013.2
09 25.06 СВ 4 10 км 8/0
[Ac As Cs]
+19.1 +15.8 81 +21 +21 комфорт 1015.9 1013.2
12 25.06 СВ 2 10 км 9/0
[Ac As]
+18.1 +15.4 84 +19 +19 1016.7 1014.0 +16.3 +20.4
15 25.06 С 4 10 км 10/0
[Ac As]
+21.3 +16.2 73 +25 +26 комфорт 1017.0 1014.4
18 25.06 С 3 10 км 10/0
[Ac As]
+22.7 +16.7 69 +27 +28 душно 1014.7 1012.0
21 25.06 СВ 2 10 км 10/0
[Ac As]
+22.1 +16.2 69 +26 +26 душно 1014.4 1011.7
00 26.06 СВ 1 10 км 4/0
[Ac und]
+18.0 +15.5 85 +19 +19 1014.9 1012.2 +18.0 +23.1
03 26.06 СВ 2 8000 м дымка ясно +17.0 +14.1 83 +18 +18 1015.3 1012.6
06 26.06 С 4 10 км 1/0
[Ac As]
+18.5 +13.6 73 +19 +19 1014.7 1012.0
09 26.06 С 4 10 км 4/0
[Ac As]
+18.7 +13.3 71 +19 +19 1014.0 1011.3
12 26.06 С 4 10 км 8/8 900 м
[Sc]
+18.5 +13.6 73 +19 +19 1014.4 1011.7 +16.4 +20.1
15 26.06 С 6 10 км 8/0
[Ac cast Ci fib]
+22.2 +13.5 58 +25 +27 комфорт 1014.1 1011.4
18 26.06 С 4 10 км 9/0
[Ac cast Cs]
+23.9 +14.4 55 +26 +28 жарко 1011.5 1008.8
21 26.06 В 1 10 км 8/0
[Ac As Cs]
+19.7 +15.0 74 +23 +23 комфорт 1011.3 1008.6
00 27.06 С 3 10 км 6/0
[Ac As]
+19.2 +15.0 77 +21 +21 комфорт 1010.9 1008.2 +17.8 +24.4
03 27.06 С 4 10 км 3/0
[Ac As]
+19.6 +15.1 75 +21 +21 комфорт 1010.1 1007.4
06 27.06 С 4 10 км 10/0 1200 м
[As op]
+18.8 +14.2 75 +20 +20 1010.2 1007.4
09 27.06 С 4 10 км в посл. час дождь 10/4 540 м
[Sc As op]
+18.5 +14.4 77 +19 +19 1009.1 1006.4
12 27.06 С 5 10 км {дождь} 10/6 360 м
[St As op]
+18.5 +15.3 82 +19 +19 1009.0 1006.2 +18.0 +20.6 0.0
15 27.06 З 4 8000 м дымка 10/6 360 м
[St Ac As]
+18.6 +16.5 88 +19 +20 1009.9 1007.2

 

Местоположение метеостанции La Plata (Аргентина): широта -34.96 долгота -57.90 высота над уровнем моря 19 м.

В архиве по умолчанию представлена погода в La Plata за последнюю неделю. Архивные данные за месяц целиком и за предыдущие месяцы, начиная с января 2011 года, Вы можете получить, выбрав интересующий диапазон дат из раскрывающегося списка и нажав кнопку "Ввод!".

Внимание! Время в таблицах - всемирное. Для получения местного времени необходимо прибавить поправку, которая в La Plata равна -3 ч.

Смотрите также архив погоды в соседних городах и на ближайших метеорологических станциях:

Погода в Colonia (Уругвай) (57 км)
Погода в Ezeiza (Аргентина) (60 км)
Погода в Buenos Aires Aeropuerto (Аргентина) (64 км)
Погода в Buenos Aires (Аргентина) (68 км)
Погода в Melilla (Уругвай) (152 км)
Погода в Dolores (Аргентина) (152 км)
Погода в Prado (Уругвай) (156 км)
Погода в Las Flores (Аргентина) (164 км)
Погода в Carrasco (Уругвай) (174 км)
Погода в Florida (Уругвай) (183 км)

Пояснения к столбцам:

Ветер - указаны скорость ветра в м/с - средняя за 10 мин, порывы в срок и между сроками (в фигурных скобках) и направление, откуда дует ветер: С - северный, СВ - северо-восточный, В - восточный, ЮВ - юго-восточный, Ю - южный, ЮЗ - юго-западный, З - западный, СЗ - северо-западный.
Видимость - горизонтальная дальность видимости в метрах или километрах. При видимости от 1 до 10 км при отсутствии осадков обычно наблюдается дымка, при ухудшении видимости до 1 км и менее - туман. В сухую погоду видимость может ухудшаться дымом, пылью или мглою.
Явления - указаны атмосферные явления, наблюдавшиеся в срок или в последний час перед сроком; фигурными скобками обозначены явления, наблюдавшиеся между сроками (за 1-3 часа до срока); квадратными скобками обозначены град или гололедные отложения с указанием их диаметра в мм.
Облачность - указаны через наклонную черту общая и нижняя облачность в баллах и высота нижней границы облаков в метрах; квадратными скобками обозначены формы облаков: Ci - перистые, Cs - перисто-слоистые, Cc - перисто-кучевые, Ac - высококучевые, As - высокослоистые, Sc - слоисто-кучевые, Ns - слоисто-дождевые, Cu - кучевые, Cb - кучево-дождевые. Подробнее классификацию облаков см. в Атласе облаков (PDF).
T - Температура воздуха - температура, измеренная на высоте 2 м над землей.
Td - Температура точки росы - температура, при понижении до которой содержащийся в воздухе водяной пар достигнет насыщения.
f - Относительная влажность воздуха - влажноcть воздуха, измеренная на высоте 2 м над землей.
Te - Эффективная температура - температура, которую ощущает одетый по сезону человек в тени. Характеристика душности погоды. При расчете учитывается влияние влажности воздуха и скорости ветра на теплоощущения человека.
Tes - Эффективная температура на солнце - температура, которую ощущает человек, с поправкой на солнечный нагрев. Характеристика знойности погоды. Зависит от высоты солнца над горизонтом, облачности и скорости ветра. Ночью, в пасмурную погоду, а также при ветре 12 м/с и более поправка равна нулю.
P - Атмосферное давление - приведенное к уровню моря атмосферное давление.
Po - Атмосферное давление - измеренное на уровне метеостанции атмосферное давление.
Tmin - Минимальная температура - минимум температуры воздуха на высоте 2 м над землей.
Tmax - Максимальная температура - максимум температуры воздуха на высоте 2 м над землей.
R - Количество осадков - Количество выпавших осадков за период времени, мм. При наведении курсора мыши на число - период времени, за который выпало указанное количество осадков.
R24 - Количество осадков - Количество выпавших осадков за 24 часа, мм.
S - Снежный покров - Высота снежного покрова, см. При наведении курсора мыши на число - состояние снежного покрова и степень покрытия местности в баллах.